�N����,����,�~����,�C��,���x,�C��,����,���ϕ���,�ő�u�ԕ���,�ő厞����,���˗�,�I�_���x,�n�����x,�ő啗���N��,DTYPE
"22/06/20","00:10",0.0,23.4,82.7,1002.4,334.3,1.1,1.8,341.9,0.00,20.3,22.4,"00:01:28",1
"22/06/20","00:20",0.0,23.4,83.3,1002.6,350.9,1.1,1.9,356.8,0.00,20.4,22.5,"00:11:52",1
"22/06/20","00:30",0.0,23.4,83.7,1002.6,345.9,1.3,2.0,344.4,0.00,20.5,22.4,"00:20:56",1
"22/06/20","00:40",0.0,23.4,84.2,1002.6,342.1,1.3,2.1,350.7,0.00,20.6,22.4,"00:33:52",1
"22/06/20","00:50",0.0,23.4,84.4,1002.6,331.1,0.8,1.3,347.3,0.00,20.7,22.5,"00:42:08",1
"22/06/20","01:00",0.0,23.3,84.6,1002.4,301.6,1.0,1.6,301.4,0.00,20.6,22.3,"00:54:40",1
"22/06/20","01:10",0.0,22.9,84.9,1002.6,297.6,1.0,1.3,320.1,0.00,20.3,22.1,"01:09:44",1
"22/06/20","01:20",0.0,22.7,85.3,1002.4,325.3,1.2,1.7,325.6,0.00,20.1,22.4,"01:13:04",1
"22/06/20","01:30",0.0,22.5,85.9,1002.4,289.4,1.1,1.7,331.9,0.00,20.1,22.1,"01:26:16",1
"22/06/20","01:40",0.0,22.4,86.5,1001.9,312.8,1.3,1.8,337.3,0.00,20.1,22.1,"01:37:04",1
"22/06/20","01:50",0.0,22.2,87.0,1002.4,319.2,1.1,1.9,327.1,0.00,20.0,22.2,"01:43:52",1
"22/06/20","02:00",0.0,21.9,87.3,1001.9,288.5,0.3,1.0,265.6,0.00,19.7,22.0,"01:51:28",1
"22/06/20","02:10",0.0,22.0,87.9,1002.9,295.4,1.1,1.8,326.8,0.00,19.9,22.2,"02:09:52",1
"22/06/20","02:20",0.0,22.0,88.4,1001.9,317.3,1.3,1.8,314.2,0.00,20.0,22.1,"02:16:00",1
"22/06/20","02:30",0.0,21.9,88.8,1002.2,306.5,1.3,1.9,316.1,0.00,20.0,22.2,"02:23:20",1
"22/06/20","02:40",0.0,21.9,89.1,1001.7,325.5,1.5,2.1,315.2,0.00,20.1,22.2,"02:32:40",1
"22/06/20","02:50",0.0,21.8,89.4,1002.2,285.0,1.0,1.7,323.8,0.00,20.0,22.1,"02:40:08",1
"22/06/20","03:00",0.0,21.9,89.6,1001.9,279.2,1.0,1.3,292.0,0.00,20.2,22.1,"02:55:44",1
"22/06/20","03:10",0.0,21.9,89.9,1001.9,321.5,1.6,2.2,343.3,0.00,20.2,21.8,"03:05:54",1
"22/06/20","03:20",0.0,22.0,90.0,1001.9,307.6,1.2,1.9,337.3,0.00,20.3,21.8,"03:14:24",1
"22/06/20","03:30",0.0,22.1,90.1,1001.7,322.9,1.2,1.9,334.8,0.00,20.4,21.9,"03:23:44",1
"22/06/20","03:40",0.0,22.2,90.1,1001.9,247.2,0.5,1.1,346.7,0.00,20.5,22.0,"03:30:16",1
"22/06/20","03:50",0.0,22.2,90.2,1001.7,292.2,1.0,1.6,309.3,0.00,20.6,22.0,"03:45:28",1
"22/06/20","04:00",0.0,22.2,90.3,1001.7,312.4,0.7,1.4,314.3,0.00,20.6,21.7,"03:58:32",1
"22/06/20","04:10",0.0,22.4,90.3,1001.9,327.8,1.1,1.4,335.5,0.00,20.8,21.9,"04:01:12",1
"22/06/20","04:20",0.0,22.4,90.3,1001.5,303.0,1.1,1.8,325.3,0.00,20.8,22.0,"04:12:40",1
"22/06/20","04:30",0.0,22.3,90.3,1001.5,295.9,0.8,1.3,309.5,0.00,20.7,21.7,"04:28:48",1
"22/06/20","04:40",0.0,22.3,90.4,1001.7,304.5,1.1,1.7,317.3,0.00,20.7,21.8,"04:31:44",1
"22/06/20","04:50",0.0,22.3,90.4,1001.9,293.6,0.8,1.3,316.1,0.00,20.7,22.0,"04:48:48",1
"22/06/20","05:00",0.0,22.3,90.5,1001.7,308.8,1.0,1.3,341.4,0.00,20.7,21.7,"04:59:20",1
"22/06/20","05:10",0.0,22.5,90.4,1001.7,311.2,1.0,1.9,353.0,0.00,20.9,22.0,"05:00:48",1
"22/06/20","05:20",0.0,22.4,90.4,1001.9,301.3,1.0,1.2,312.8,0.00,20.8,21.7,"05:18:32",1
"22/06/20","05:30",0.0,22.3,90.5,1001.9,299.0,1.0,1.4,324.3,0.00,20.7,21.7,"05:29:28",1
"22/06/20","05:40",0.0,22.3,90.5,1001.7,318.5,1.2,1.8,330.0,0.00,20.7,21.8,"05:32:48",1
"22/06/20","05:50",0.0,22.4,90.4,1001.9,312.8,1.1,1.3,319.4,0.00,20.8,21.7,"05:41:12",1
"22/06/20","06:00",0.0,22.5,90.4,1001.9,322.9,1.0,1.2,315.8,0.00,20.9,21.8,"05:51:28",1
"22/06/20","06:10",0.0,22.7,90.4,1001.7,292.7,0.6,0.9,305.3,0.00,21.1,21.7,"06:00:16",1
"22/06/20","06:20",0.0,22.7,90.3,1001.9,320.8,1.1,1.8,338.6,0.01,21.1,21.8,"06:17:52",1
"22/06/20","06:30",0.0,22.7,90.3,1001.9,323.1,1.3,2.0,340.7,0.02,21.1,21.8,"06:26:00",1
"22/06/20","06:40",0.0,22.9,90.2,1001.9,295.9,0.7,1.1,306.1,0.03,21.2,21.7,"06:30:24",1
"22/06/20","06:50",0.0,23.1,90.1,1001.7,280.8,0.6,1.0,261.8,0.04,21.4,21.8,"06:41:28",1
"22/06/20","07:00",0.0,23.2,90.0,1001.9,303.1,1.0,1.8,319.5,0.06,21.5,21.8,"06:53:12",1
"22/06/20","07:10",0.0,23.8,89.6,1001.9,293.9,0.5,1.0,319.0,0.08,22.0,21.7,"07:05:44",1
"22/06/20","07:20",0.0,24.3,89.3,1001.7,289.0,0.5,0.6,310.0,0.08,22.5,21.8,"07:10:40",1
"22/06/20","07:30",0.0,24.5,88.8,1001.7,288.0,0.3,1.1,311.5,0.08,22.6,21.7,"07:27:12",1
"22/06/20","07:40",0.0,24.7,88.1,1001.7,260.5,0.3,1.1,315.0,0.11,22.6,21.8,"07:30:32",1
"22/06/20","07:50",0.0,24.8,87.0,1001.2,219.0,0.6,1.3,239.3,0.12,22.5,21.7,"07:45:36",1
"22/06/20","08:00",0.0,25.3,85.4,1001.2,146.5,0.3,1.3,199.9,0.16,22.7,21.7,"07:50:02",1
"22/06/20","08:10",0.0,25.3,84.0,1001.5,233.3,0.7,1.6,244.7,0.14,22.4,21.8,"08:05:04",1
"22/06/20","08:20",0.0,25.7,82.4,1001.2,327.8,0.5,1.6,340.0,0.17,22.5,21.8,"08:17:12",1
"22/06/20","08:30",0.0,26.1,80.2,1001.0,358.8,1.0,1.7,339.9,0.20,22.5,21.7,"08:28:40",1
"22/06/20","08:40",0.0,26.6,78.3,1001.0,240.9,0.5,1.8,346.5,0.24,22.6,21.9,"08:39:52",1
"22/06/20","08:50",0.0,26.8,76.5,1000.0,358.4,0.8,1.8,27.1,0.22,22.4,21.9,"08:43:20",1
"22/06/20","09:00",0.0,26.8,75.6,1000.3,351.8,1.0,2.1,352.1,0.22,22.2,22.1,"08:58:16",1
"22/06/20","09:10",0.0,27.0,75.2,1000.0,352.5,0.7,1.8,350.8,0.25,22.3,22.0,"09:03:04",1
"22/06/20","09:20",0.0,27.4,73.6,1000.5,333.4,0.7,1.9,347.4,0.31,22.3,22.0,"09:14:24",1
"22/06/20","09:30",0.0,27.7,72.6,1000.5,356.8,1.0,1.9,337.6,0.29,22.4,22.0,"09:21:36",1
"22/06/20","09:40",0.0,28.4,71.0,1000.5,1.4,0.6,1.4,0.0,0.33,22.7,22.1,"09:32:48",1
"22/06/20","09:50",0.0,28.8,68.8,1000.8,19.3,0.8,1.9,41.0,0.33,22.5,22.2,"09:45:28",1
"22/06/20","10:00",0.0,29.0,67.7,1001.0,26.0,0.8,2.5,337.8,0.34,22.5,22.2,"09:55:52",1
"22/06/20","10:10",0.0,29.0,67.2,1001.2,236.0,0.8,2.1,207.2,0.37,22.3,22.2,"10:06:24",1
"22/06/20","10:20",0.0,29.3,66.2,1001.5,36.0,0.7,1.7,178.6,0.35,22.4,22.4,"10:10:02",1
"22/06/20","10:30",0.0,29.4,66.4,1001.5,164.7,1.0,2.4,127.7,0.37,22.5,22.2,"10:22:48",1
"22/06/20","10:40",0.0,29.8,65.5,1001.5,92.7,0.8,1.8,177.4,0.32,22.7,22.3,"10:38:56",1
"22/06/20","10:50",0.0,29.2,67.4,1001.2,192.0,1.3,4.2,230.6,0.30,22.6,22.3,"10:41:28",1
"22/06/20","11:00",0.0,29.3,67.2,1001.2,228.9,1.2,3.3,198.6,0.36,22.6,22.6,"10:59:28",1
"22/06/20","11:10",0.0,29.6,68.5,1001.0,167.2,1.5,2.9,175.7,0.40,23.2,22.4,"11:03:36",1
"22/06/20","11:20",0.0,30.0,64.8,1001.5,226.6,1.1,3.1,185.7,0.45,22.7,22.7,"11:14:48",1
"22/06/20","11:30",0.0,30.6,64.4,1001.2,131.9,1.0,2.9,325.4,0.43,23.2,22.7,"11:21:20",1
"22/06/20","11:40",0.0,30.5,62.7,1001.7,174.7,1.1,2.8,200.6,0.43,22.6,22.8,"11:37:12",1
"22/06/20","11:50",0.0,30.9,62.2,1001.5,199.6,1.2,2.9,183.8,0.50,22.9,22.9,"11:41:04",1
"22/06/20","12:00",0.0,30.7,63.4,1001.5,180.6,2.2,3.9,218.2,0.53,23.0,22.9,"11:50:08",1
"22/06/20","12:10",0.0,30.8,62.1,1001.5,179.0,2.0,5.1,221.5,0.56,22.7,22.9,"12:09:20",1
"22/06/20","12:20",0.0,30.7,60.6,1001.0,184.3,1.7,4.4,209.9,0.52,22.2,23.1,"12:17:04",1
"22/06/20","12:30",0.0,31.0,62.3,1001.2,150.5,1.3,3.2,137.5,0.38,23.0,23.1,"12:25:52",1
"22/06/20","12:40",0.0,30.8,62.0,1001.2,165.5,1.7,3.4,228.9,0.42,22.7,23.3,"12:34:56",1
"22/06/20","12:50",0.0,31.5,61.5,1000.8,154.5,1.5,3.2,135.3,0.51,23.2,23.4,"12:48:40",1
"22/06/20","13:00",0.0,30.8,61.6,1000.5,201.1,1.7,3.7,153.4,0.35,22.6,23.4,"12:52:48",1
"22/06/20","13:10",0.0,30.8,60.2,1000.8,221.5,1.3,2.7,178.0,0.33,22.2,23.5,"13:08:48",1
"22/06/20","13:20",0.0,30.5,60.5,1000.3,187.5,1.6,3.4,202.1,0.30,22.0,23.2,"13:19:52",1
"22/06/20","13:30",0.0,30.7,61.1,1000.3,229.8,1.3,3.6,221.9,0.32,22.4,23.6,"13:20:32",1
"22/06/20","13:40",0.0,30.5,60.6,999.8,200.6,1.8,3.5,241.8,0.27,22.1,23.6,"13:36:40",1
"22/06/20","13:50",0.0,30.0,62.2,999.3,209.7,2.3,4.8,221.3,0.23,22.0,23.6,"13:43:04",1
"22/06/20","14:00",0.0,30.0,62.8,999.3,214.4,2.3,4.3,210.4,0.25,22.2,23.6,"13:50:32",1
"22/06/20","14:10",0.0,30.0,62.7,999.1,197.0,1.8,5.0,231.0,0.26,22.1,23.8,"14:09:12",1
"22/06/20","14:20",0.0,30.4,63.3,999.3,192.2,1.7,4.0,178.9,0.32,22.7,23.8,"14:14:16",1
"22/06/20","14:30",0.0,30.7,63.2,999.3,190.6,1.8,4.9,189.5,0.30,22.9,23.9,"14:25:20",1
"22/06/20","14:40",0.0,30.6,63.1,999.3,168.3,1.6,3.7,132.8,0.29,22.8,23.7,"14:33:12",1
"22/06/20","14:50",0.0,30.7,63.3,999.1,178.1,1.8,3.9,210.4,0.37,23.0,23.9,"14:46:56",1
"22/06/20","15:00",0.0,30.9,62.5,999.3,184.7,2.2,3.9,202.5,0.39,22.9,23.9,"14:52:40",1
"22/06/20","15:10",0.0,30.3,62.6,999.1,207.2,2.1,4.0,204.7,0.20,22.4,24.2,"15:01:36",1
"22/06/20","15:20",0.0,30.3,63.8,999.1,196.1,1.5,2.9,208.7,0.20,22.7,24.1,"15:10:08",1
"22/06/20","15:30",0.0,30.7,62.1,998.9,221.6,1.3,4.4,217.6,0.27,22.6,23.9,"15:25:52",1
"22/06/20","15:40",0.0,31.1,59.2,999.1,208.1,1.1,3.9,203.3,0.22,22.2,24.1,"15:30:16",1
"22/06/20","15:50",0.0,31.4,58.2,999.1,286.7,0.8,1.9,239.9,0.25,22.2,24.2,"15:46:40",1
"22/06/20","16:00",0.0,31.4,57.1,999.3,250.1,1.3,4.4,244.5,0.26,21.9,24.1,"15:58:40",1
"22/06/20","16:10",0.0,30.8,59.0,999.3,211.3,1.6,3.6,220.2,0.21,21.9,24.2,"16:04:00",1
"22/06/20","16:20",0.0,30.6,59.1,999.1,217.0,2.3,4.8,241.7,0.21,21.7,24.1,"16:17:52",1
"22/06/20","16:30",0.0,31.0,58.0,999.1,229.0,2.1,4.1,236.4,0.28,21.8,24.1,"16:22:24",1
"22/06/20","16:40",0.0,31.1,56.5,999.1,251.6,1.5,2.9,207.4,0.27,21.5,24.2,"16:31:28",1
"22/06/20","16:50",0.0,30.9,57.3,999.3,234.7,2.1,4.1,218.4,0.23,21.5,24.2,"16:40:32",1
"22/06/20","17:00",0.0,30.7,56.2,999.1,269.2,1.3,3.5,211.1,0.15,21.0,24.3,"16:51:44",1
"22/06/20","17:10",0.0,30.4,56.6,999.3,287.3,1.5,3.5,306.6,0.12,20.9,24.3,"17:08:08",1
"22/06/20","17:20",0.0,30.2,57.7,998.9,254.0,1.6,4.0,238.9,0.11,21.0,24.4,"17:18:16",1
"22/06/20","17:30",0.0,29.8,58.9,998.9,249.6,1.8,3.4,231.5,0.08,20.9,24.1,"17:25:52",1
"22/06/20","17:40",0.0,29.6,60.3,998.4,251.8,1.5,3.2,241.0,0.08,21.1,24.1,"17:32:48",1
"22/06/20","17:50",0.0,29.5,59.8,998.4,269.3,1.2,2.7,239.5,0.08,20.9,24.5,"17:45:44",1
"22/06/20","18:00",0.0,29.5,59.7,998.2,254.3,1.2,2.7,238.6,0.07,20.9,24.3,"17:57:20",1
"22/06/20","18:10",0.0,29.4,61.0,998.4,251.3,1.6,3.7,234.3,0.07,21.1,24.1,"18:03:52",1
"22/06/20","18:20",0.0,29.2,62.6,997.7,242.9,2.0,3.2,251.2,0.05,21.4,24.4,"18:10:40",1
"22/06/20","18:30",0.0,28.8,63.7,997.9,251.1,2.0,3.6,252.3,0.03,21.3,24.2,"18:25:52",1
"22/06/20","18:40",0.0,28.8,64.7,997.9,268.1,1.3,2.9,246.4,0.03,21.5,24.4,"18:36:16",1
"22/06/20","18:50",0.0,28.6,65.1,997.7,267.3,1.0,2.5,309.7,0.02,21.4,24.3,"18:46:24",1
"22/06/20","19:00",0.0,28.5,65.7,997.7,259.3,1.1,2.7,233.5,0.01,21.5,24.2,"18:55:36",1
"22/06/20","19:10",0.0,28.1,66.1,998.4,282.0,0.6,1.9,252.6,0.00,21.2,24.3,"19:01:28",1
"22/06/20","19:20",0.0,28.2,68.2,998.4,343.0,0.7,1.8,356.4,0.00,21.8,24.1,"19:14:32",1
"22/06/20","19:30",0.0,27.8,70.1,998.6,349.6,0.8,1.3,356.0,0.00,21.9,24.2,"19:21:52",1
"22/06/20","19:40",0.0,27.2,72.3,999.1,323.4,0.7,1.2,336.0,0.00,21.8,24.1,"19:39:04",1
"22/06/20","19:50",0.0,26.7,73.3,999.1,322.7,1.1,1.7,312.3,0.00,21.6,24.1,"19:47:20",1
"22/06/20","20:00",0.0,26.5,74.4,999.3,322.7,1.2,1.9,335.0,0.00,21.6,24.1,"19:59:12",1
"22/06/20","20:10",0.0,26.3,75.6,999.3,337.2,1.6,2.1,331.7,0.00,21.7,24.0,"20:02:16",1
"22/06/20","20:20",0.0,25.9,76.4,999.3,334.7,1.6,2.4,339.7,0.00,21.5,24.2,"20:10:40",1
"22/06/20","20:30",0.0,25.7,76.9,999.6,335.2,1.7,2.6,353.1,0.00,21.4,24.0,"20:21:28",1
"22/06/20","20:40",0.0,25.6,77.5,999.8,327.7,1.7,2.2,323.1,0.00,21.4,24.0,"20:32:08",1
"22/06/20","20:50",0.0,25.3,78.5,999.6,321.8,1.5,2.6,337.4,0.00,21.3,24.0,"20:41:28",1
"22/06/20","21:00",0.0,25.0,79.4,999.6,303.0,1.1,2.0,323.9,0.00,21.2,24.0,"20:55:12",1
"22/06/20","21:10",0.0,24.9,80.0,1000.0,305.8,1.2,1.8,324.7,0.00,21.3,23.8,"21:06:32",1
"22/06/20","21:20",0.0,24.8,80.4,1000.0,318.0,1.2,1.7,308.2,0.00,21.2,23.9,"21:10:24",1
"22/06/20","21:30",0.0,24.7,80.9,1000.0,313.4,1.2,2.1,305.0,0.00,21.2,23.7,"21:20:32",1
"22/06/20","21:40",0.0,24.5,81.3,1000.3,317.7,1.0,1.4,329.0,0.00,21.1,23.6,"21:38:00",1
"22/06/20","21:50",0.0,24.2,81.7,1000.5,286.6,0.6,1.0,308.3,0.00,20.9,23.5,"21:49:12",1
"22/06/20","22:00",0.0,24.1,82.1,1000.5,281.4,1.0,1.2,328.9,0.00,20.9,23.6,"21:59:44",1
"22/06/20","22:10",0.0,24.2,82.8,1000.3,332.5,1.2,1.8,344.0,0.00,21.1,23.6,"22:08:00",1
"22/06/20","22:20",0.0,24.0,83.3,1000.3,332.5,1.6,2.4,323.2,0.00,21.0,23.7,"22:15:44",1
"22/06/20","22:30",0.0,23.8,83.6,1001.0,313.3,1.2,1.9,329.7,0.00,20.9,23.6,"22:29:12",1
"22/06/20","22:40",0.0,23.9,83.9,1000.8,327.4,1.7,2.7,335.3,0.00,21.1,23.5,"22:38:24",1
"22/06/20","22:50",0.0,23.9,84.1,1000.8,335.6,1.7,2.7,319.8,0.00,21.1,23.3,"22:48:08",1
"22/06/20","23:00",0.0,23.7,84.3,1000.8,315.1,1.3,2.5,347.7,0.00,20.9,23.3,"22:50:24",1
"22/06/20","23:10",0.0,23.6,84.5,1001.0,334.6,1.7,2.0,343.2,0.00,20.9,23.4,"23:04:16",1
"22/06/20","23:20",0.0,23.6,84.5,1000.5,336.9,2.5,4.0,345.8,0.00,20.9,23.5,"23:17:52",1
"22/06/20","23:30",0.0,23.8,83.9,1001.0,333.6,2.6,3.6,330.4,0.00,21.0,23.4,"23:20:56",1
"22/06/20","23:40",0.0,23.9,83.6,1001.0,326.1,1.7,2.1,327.3,0.00,21.0,23.3,"23:31:20",1
"22/06/20","23:50",0.0,23.7,83.6,1000.8,327.4,1.7,2.6,344.0,0.00,20.8,23.2,"23:41:28",1
"22/06/20","24:00",0.0,23.6,83.9,1000.8,332.8,1.6,2.1,347.3,0.00,20.8,23.2,"23:56:32",1
